• Join FlightAware (Why Join?)
  • Login
  • US Flag 
11:35AM EDT


 

Airport Tracker/Info


-or-


 

Live Flight TrackerFlight Track Log ✈ UAL4849 ✈ 22-Apr-2013 ✈ KROC - KEWR

Flight Track Log - Related Links

Times and Time Zones

All times are in EDT time to prevent confusion due to time zone crossing. See the UAL4849 flight status page for this flight to view local times or setup timezone preferences in your user account.

Time Position Orientation Groundspeed Altitude Reporting Facility
EDT Latitude Longitude Course Direction KTS MPH feet Rate Location/Type
11:15AM 43.1036 -77.6914 124° Southeast 122 140 1,300  Level Cleveland Center
11:16AM 43.0642 -77.6961 185° South 126 145 2,600 1,260 Climbing Cleveland Center
11:17AM 43.0242 -77.6836 167° South 139 160 4,100 1,620 Climbing Cleveland Center
11:18AM 42.9842 -77.6656 162° South 147 169 5,900 1,620 Climbing Cleveland Center
11:19AM 42.9409 -77.2650 124° Southeast  Level FlightAware Approximate
11:19AM 42.9700 -77.6039 107° East 138 159 7,400  Level Cleveland Center
11:20AM 42.9087 -77.1840 124° Southeast  Level FlightAware Approximate
11:20AM 42.9581 -77.5447 105° East 149 171 8,800  Level Cleveland Center
11:21AM 42.9417 -77.4803 109° East 169 194 10,200 1,260 Climbing Cleveland Center
11:22AM 42.9253 -77.4131 108° East 175 201 11,400 960 Climbing Cleveland Center
11:24AM 42.8961 -77.2839 107° East 191 220 13,000 540 Climbing New York Center
11:25AM 42.8739 -77.1939 109° East 213 245 13,000  Level New York Center
11:26AM 42.8517 -77.1014 108° East 243 280 13,000  Level New York Center
11:26AM 42.8294 -77.0158 109° East 253 291 13,000  Level Boston Center
11:27AM 42.7992 -76.9400 119° Southeast 258 297 13,000  Level Boston Center
11:28AM 42.7628 -76.8525 120° Southeast 258 297 13,000  Level Boston Center
11:29AM 42.7244 -76.7706 122° Southeast 258 297 13,000  Level Boston Center
11:30AM 42.6858 -76.6831 121° Southeast 264 304 13,000  Level Boston Center
11:31AM 42.6494 -76.6017 121° Southeast 264 304 13,000  Level Boston Center
11:32AM 42.6108 -76.5172 122° Southeast 264 304 13,000  Level Boston Center
11:33AM 42.5722 -76.4300 121° Southeast 264 304 13,000  Level Boston Center
11:34AM 42.5353 -76.3458 121° Southeast 264 304 13,000  Level Boston Center
11:35AM 42.4967 -76.2589 121° Southeast 264 304 13,000  Level Boston Center
11:36AM 42.4578 -76.1750 122° Southeast 264 304 13,000  Level Boston Center
11:37AM 42.4208 -76.0883 120° Southeast 264 304 13,000  Level Boston Center
11:38AM 42.3819 -76.0072 123° Southeast 264 304 13,000  Level Boston Center
11:39AM 42.3408 -75.9178 122° Southeast 266 306 13,000  Level Boston Center
11:40AM 42.3039 -75.8342 121° Southeast 266 306 13,000  Level Boston Center
11:41AM 42.2667 -75.7508 121° Southeast 259 298 13,000  Level Boston Center
11:42AM 42.2294 -75.6647 120° Southeast 264 304 13,000  Level Boston Center
11:43AM 42.1900 -75.5814 123° Southeast 264 304 13,000  Level Boston Center
11:44AM 42.1486 -75.4981 124° Southeast 264 304 13,000  Level Boston Center
11:45AM 42.1111 -75.4153 121° Southeast 264 304 13,100  Climbing Boston Center
11:46AM 42.0717 -75.3322 123° Southeast 264 304 13,000 -60 Descending Boston Center
11:47AM 42.0442 -75.2639 118° Southeast 264 304 13,000  Level Boston Center
11:48AM 42.0031 -75.1586 118° Southeast 264 304 13,000  Level Boston Center
11:49AM 41.9678 -75.0622 116° Southeast 264 304 13,000  Level Boston Center
11:50AM 41.9344 -74.9742 117° Southeast 264 304 13,000 -360 Level Boston Center
11:51AM 41.8731 -74.9214 147° Southeast 258 297 12,300 -780 Descending Boston Center
11:52AM 41.8094 -74.8744 151° Southeast 263 303 11,500 -780 Descending Boston Center
11:54AM 41.7436 -74.8275 152° Southeast 263 303 10,700 -780 Descending Boston Center
11:55AM 41.6758 -74.7775 151° Southeast 257 296 9,800 -840 Descending Boston Center
11:56AM 41.6225 -74.7422 154° Southeast 252 290 9,100 -780 Descending Boston Center
11:57AM 41.5383 -74.6811 151° Southeast 252 290 8,000 -960 Descending Boston Center
11:58AM 41.4683 -74.6314 152° Southeast 241 277 6,900 -1,020 Descending Boston Center
11:59AM 41.4169 -74.5992 155° Southeast 235 270 6,000 -420 Descending Boston Center
12:00PM 41.3333 -74.6167 189° South 232 267 6,000  Level New York TRACON
12:01PM 41.2667 -74.6500 201° Southwest 226 260 6,000  Level New York TRACON
12:02PM 41.2000 -74.6667 191° South 235 270 6,100  Climbing New York TRACON
12:03PM 41.1333 -74.7000 201° Southwest 239 275 6,100  Level New York TRACON
12:04PM 41.1000 -74.6333 124° Southeast 231 266 6,100 -60 Level New York TRACON
12:05PM 41.0500 -74.5833 143° Southeast 236 272 6,000  Descending New York TRACON
12:06PM 40.9833 -74.5500 159° South 236 272 6,100 -300 Climbing New York TRACON
12:07PM 40.9500 -74.4833 123° Southeast 220 253 5,400 -600 Descending New York TRACON
12:08PM 40.9000 -74.5000 194° South 231 266 4,900 -240 Descending New York TRACON
12:09PM 40.8500 -74.5667 225° Southwest 237 273 5,000  Climbing New York TRACON
12:10PM 40.7833 -74.5667 180° South 221 254 5,000  Level New York TRACON
12:11PM 40.7333 -74.5500 166° South 230 265 5,100  Climbing New York TRACON
12:12PM 40.6833 -74.5333 166° South 220 253 5,000 -60 Descending New York TRACON
12:13PM 40.6167 -74.5000 159° South 220 253 5,000 -300 Level New York TRACON
12:14PM 40.5667 -74.4667 153° Southeast 231 266 4,500 -540 Descending New York TRACON
12:15PM 40.5000 -74.4500 169° South 235 270 4,000 -420 Descending New York TRACON
12:16PM 40.4500 -74.4167 153° Southeast 188 216 3,800 -480 Descending New York TRACON
12:17PM 40.4167 -74.3833 143° Southeast 164 189 3,000 -420 Descending New York TRACON
12:18PM 40.4500 -74.3333 49° Northeast 157 181 3,000  Level New York TRACON
12:19PM 40.4833 -74.3000 37° Northeast 159 183 3,000  Level New York TRACON
12:20PM 40.5167 -74.2833 21° North 161 185 3,000  Level New York TRACON